RH
9 8 8 7 7 7 8 8 8 7 7 8 8 8 9 10 11 11 10 10 10 10 9 9 9 9 9 8 9 8 8 9 11 13 11 8 7 8 8 7 8 8 9 9 9 9 9 10 11 12 13 12 12 13 11 10 13 15 27 28 24 36 37 36 36 31 30 25 27 34 44 50 42 39 34 31 31 30 31 29 29 28 25 24 21 18 17 16
10 9 9 8 8 8 8 9 8 8 7 8 8 8 9 11 11 10 10 10 9 9 9 9 9 8 8 7 8 8 8 9 10 12 11 9 8 8 8 7 8 8 8 9 9 9 9 10 10 11 11 10 11 13 13 11 12 25 37 27 30 43 34 30 29 26 25 18 24 30 36 44 39 34 28 27 29 27 29 29 27 28 27 25 24 23 20 18
11 10 10 9 8 8 8 8 8 8 8 8 8 8 10 11 11 10 9 9 8 9 8 8 8 7 8 7 7 8 7 9 9 10 10 8 8 8 8 7 8 7 8 8 8 9 9 10 10 11 10 9 11 12 13 12 12 20 25 26 39 46 32 24 23 19 19 17 20 23 32 41 37 30 25 24 27 27 29 27 25 25 22 22 24 25 24 23
11 10 10 9 8 8 7 7 7 7 8 8 9 9 10 10 10 9 8 9 8 9 9 8 8 7 8 7 7 9 8 10 11 10 9 8 9 8 8 8 8 8 8 8 8 9 9 10 11 10 9 10 12 12 13 12 13 16 18 28 37 35 25 18 16 16 16 17 16 20 30 34 31 30 26 22 24 31 29 20 19 19 15 17 20 23 25 25
10 10 9 9 8 8 8 8 7 7 8 8 9 9 10 10 9 9 8 8 8 9 9 8 8 7 8 7 7 9 9 12 13 11 9 9 9 9 9 8 8 8 8 8 8 8 9 10 11 11 10 11 12 12 13 12 13 18 21 25 27 25 19 12 14 15 14 15 17 24 26 23 26 29 27 25 26 29 23 14 16 15 14 15 16 19 23 24
10 10 9 9 9 9 9 9 9 9 9 8 8 8 9 9 8 8 8 8 8 8 8 8 8 7 7 8 8 8 10 13 13 12 10 9 9 10 10 9 9 8 9 9 9 9 9 10 11 11 10 12 15 14 13 14 14 18 22 20 19 20 16 12 14 13 14 14 16 23 22 20 22 22 25 27 25 23 18 16 16 15 16 15 15 17 18 21
9 9 9 9 9 9 9 9 9 9 9 9 9 9 8 8 8 8 8 8 8 7 7 8 8 8 8 8 8 8 11 14 13 13 12 10 9 10 11 11 10 9 9 9 9 9 9 10 11 10 12 14 16 16 16 17 16 17 23 22 17 17 15 14 14 13 15 15 15 18 18 20 21 19 22 22 17 17 17 17 16 16 17 16 16 16 16 18
8 8 8 9 9 9 8 8 8 8 9 8 9 9 8 8 8 8 8 8 7 7 7 7 8 8 8 9 10 9 12 14 13 13 12 11 9 9 11 11 10 10 9 9 9 9 9 10 11 11 13 16 15 17 19 20 22 21 24 24 17 16 15 14 14 14 15 15 16 18 18 18 19 19 19 18 14 15 16 16 16 15 16 17 17 16 17 18
8 8 8 8 8 8 8 7 7 7 8 8 8 8 8 8 8 8 8 8 8 7 7 7 8 8 8 10 10 11 13 13 12 12 12 11 10 9 10 11 11 11 9 9 9 9 10 10 12 12 14 18 17 19 20 19 26 26 21 21 18 15 15 15 15 15 16 17 16 17 20 17 16 19 18 17 17 18 18 15 16 16 16 19 18 18 19 20
11 12 10 8 8 7 7 7 7 7 8 10 9 9 9 8 8 8 8 8 8 8 7 6 8 9 9 9 11 14 14 12 11 11 11 10 9 10 10 11 11 11 10 10 10 9 10 10 11 12 13 17 18 22 23 17 23 25 19 18 18 16 18 19 17 17 17 17 17 18 19 18 17 19 19 20 19 18 18 16 16 16 18 21 19 19 20 22
15 16 13 9 8 8 7 7 8 7 9 11 10 10 10 9 9 8 8 9 8 9 8 7 8 9 10 10 12 15 13 10 11 10 10 10 10 10 9 10 10 11 11 10 11 10 10 10 11 12 14 18 19 22 22 19 21 21 17 20 24 23 22 25 22 19 20 16 17 19 18 20 19 20 25 25 21 20 19 17 17 18 21 21 20 20 22 23
13 14 12 9 9 9 8 8 9 7 9 9 8 9 10 11 10 8 9 8 9 9 8 8 8 9 11 12 12 14 12 10 11 10 10 10 9 10 10 10 10 11 11 11 11 11 11 12 11 12 15 18 20 20 20 21 21 20 21 26 35 38 30 30 27 20 20 18 18 19 21 29 27 25 32 29 23 23 20 18 19 21 22 22 21 22 24 25
9 9 9 9 10 10 10 10 9 8 8 7 6 8 8 9 9 9 9 8 9 9 8 8 8 9 10 13 14 13 13 11 12 11 11 11 9 11 11 10 10 10 10 10 11 12 12 12 12 14 17 20 22 21 20 21 18 20 27 32 37 40 37 32 27 22 19 19 19 19 26 38 36 31 33 30 25 25 22 21 22 23 24 24 24 24 26 27
7 8 8 10 10 11 11 10 8 7 6 5 5 6 7 8 9 8 8 8 9 8 8 9 10 10 10 13 14 12 13 13 13 12 11 11 10 11 11 11 11 10 11 10 12 14 13 14 13 16 18 20 21 20 28 36 35 31 30 49 51 35 41 42 30 26 18 18 21 18 29 36 32 32 34 29 26 26 24 23 24 27 27 26 27 26 28 30
8 10 10 11 11 10 10 8 6 6 5 5 5 6 8 9 9 9 11 11 10 9 10 11 11 10 10 13 13 13 14 12 13 12 10 10 10 11 12 12 11 11 12 12 13 14 15 15 13 18 19 18 24 26 37 54 63 52 27 49 62 37 47 50 31 30 21 19 23 19 32 37 29 34 37 30 27 26 26 26 27 30 30 30 31 30 33 38
11 11 11 10 10 9 8 8 6 7 6 6 7 8 8 8 11 14 15 13 12 12 12 13 12 10 12 14 12 13 14 13 14 12 12 13 12 13 12 13 14 13 14 13 15 16 15 17 17 22 19 18 40 45 41 47 64 68 38 36 52 41 46 45 29 32 26 22 23 22 33 34 30 40 43 33 27 28 27 28 31 32 34 35 36 39 43 47
12 11 11 11 10 9 8 8 7 7 6 6 8 8 7 8 13 16 14 12 13 13 12 12 12 12 14 14 13 15 16 15 15 15 16 15 14 15 13 14 14 14 16 15 16 16 16 19 18 25 29 37 64 59 38 40 51 64 55 42 49 46 43 43 35 32 28 26 26 28 32 29 35 47 50 41 30 30 31 32 38 39 42 44 47 50 53 53
11 11 11 11 12 10 9 9 9 8 7 7 7 8 7 9 15 16 13 13 14 13 12 12 13 15 15 14 17 18 18 16 16 18 17 16 15 14 13 14 15 15 18 15 16 18 17 20 24 37 50 53 61 47 32 45 43 39 45 43 49 51 45 45 43 37 34 33 32 33 32 36 47 51 53 52 40 34 36 40 45 48 51 55 59 62 62 61
11 11 10 11 12 11 10 9 9 9 8 8 7 7 7 7 13 16 12 13 15 15 17 15 16 18 16 16 19 19 17 16 18 18 16 16 15 13 15 14 14 15 15 16 20 24 21 26 34 41 48 47 47 40 36 49 43 34 41 42 43 46 44 41 42 47 43 35 38 40 40 51 57 54 56 59 51 43 44 47 51 55 59 65 71 75 73 72
10 10 10 10 11 10 9 9 10 10 8 9 7 7 7 8 13 16 15 15 16 18 19 18 18 18 17 18 19 19 19 17 19 19 15 16 13 13 16 13 15 19 24 31 29 27 33 41 45 43 46 47 47 49 48 50 46 41 42 43 44 43 42 39 37 51 51 38 48 55 54 61 60 57 60 61 60 58 56 57 59 62 68 77 83 82 79 77
11 10 10 10 9 9 9 9 10 10 8 9 8 7 9 11 14 15 17 19 20 20 18 18 19 18 19 20 20 20 20 18 18 18 16 16 14 14 16 19 26 28 36 47 37 33 42 44 45 51 56 53 53 58 54 49 45 42 41 41 48 47 43 41 39 56 58 41 54 65 57 60 60 59 62 63 67 71 70 65 64 70 77 84 86 81 77 75
12 11 11 10 9 10 10 10 11 10 9 9 8 8 9 13 17 17 20 23 23 22 19 18 18 18 20 20 21 21 21 21 18 16 17 16 15 17 19 28 37 37 47 56 46 48 54 47 47 55 60 58 60 61 52 47 43 41 46 44 49 52 48 49 50 61 59 42 53 63 55 58 60 57 61 64 69 75 75 69 69 77 81 85 84 78 74 70
12 12 12 10 11 10 10 11 9 9 9 8 8 9 9 12 18 18 19 23 24 23 22 21 19 18 21 21 20 22 22 25 24 19 19 17 18 23 25 34 46 51 59 59 45 43 46 46 50 54 57 48 44 50 48 50 51 44 44 43 48 52 44 47 53 56 56 48 52 56 51 56 59 57 59 62 69 75 76 74 77 82 84 87 84 75 70 67
12 12 11 11 12 10 10 10 9 10 10 9 10 9 9 13 18 19 19 24 28 27 23 22 21 19 21 21 20 23 25 24 26 24 21 20 21 26 30 35 47 51 56 60 49 39 40 47 48 51 59 44 32 48 48 41 50 55 52 43 44 47 40 45 51 49 53 53 53 50 45 52 60 64 63 61 67 75 78 80 82 86 86 83 77 71 67 65
12 12 12 11 10 10 10 9 10 11 9 11 10 9 10 12 19 22 21 27 29 26 24 22 22 20 20 21 20 22 25 22 24 25 23 22 22 28 32 31 36 41 48 58 53 44 45 49 44 44 57 51 40 47 45 37 46 56 56 47 44 47 45 50 51 48 51 49 46 44 42 53 65 69 67 64 69 75 79 84 87 89 87 79 75 72 67 66
11 12 12 10 11 11 10 10 11 10 10 11 9 10 10 12 24 25 27 44 38 23 24 22 20 22 21 21 19 21 25 23 23 24 24 23 24 28 30 30 35 39 46 55 51 44 43 46 48 47 53 59 52 46 46 49 48 44 50 57 56 51 50 54 51 50 55 48 43 43 41 52 65 68 69 67 71 77 78 82 87 92 91 86 81 74 69 69
12 12 11 10 11 10 9 11 10 9 10 9 9 11 9 15 26 21 29 56 45 22 26 25 18 20 23 21 20 24 26 22 20 23 24 23 23 25 28 34 37 38 48 53 45 40 40 47 54 54 54 60 55 46 48 51 44 41 54 64 58 48 50 55 49 52 58 50 49 51 43 51 64 68 72 69 70 78 79 80 86 91 95 90 82 75 72 72
12 11 11 11 10 9 10 9 9 10 9 9 11 9 11 22 24 23 36 42 27 22 29 24 18 19 22 21 20 24 26 22 21 23 23 22 24 24 30 37 36 43 55 46 34 38 45 50 51 51 56 57 50 47 52 49 41 47 61 64 58 54 57 57 54 62 65 54 56 59 48 52 66 69 70 67 69 78 83 83 84 90 96 94 86 80 77 76
10 11 10 10 9 9 9 8 10 10 8 11 10 8 19 24 18 31 47 32 15 24 27 20 21 21 21 24 24 24 24 25 25 23 21 23 25 25 31 36 37 50 52 35 31 37 44 52 49 48 54 53 50 55 61 54 43 49 59 60 61 65 65 63 64 70 69 63 62 60 51 51 64 73 71 66 69 77 83 83 84 91 96 96 91 84 80 80
10 11 9 9 9 9 9 10 10 8 9 11 10 16 21 21 36 48 36 21 19 23 22 19 24 26 32 39 36 29 29 30 27 24 22 22 23 25 29 29 34 51 51 42 45 43 45 57 56 52 53 50 51 54 61 63 52 49 54 51 51 58 61 69 78 70 65 74 70 56 53 53 61 73 72 69 71 76 82 83 83 89 94 95 92 85 84 84
11 11 9 10 9 9 10 9 8 8 9 10 13 22 14 21 65 63 18 12 22 23 27 32 38 42 47 50 41 35 41 39 31 32 35 33 29 30 35 33 37 53 56 50 51 48 51 60 59 57 51 46 50 46 50 64 57 48 50 44 42 52 56 65 79 70 60 68 65 57 61 59 59 70 74 76 77 76 80 83 82 88 94 94 91 88 89 90
11 11 9 10 8 10 10 7 10 9 9 16 14 17 20 29 49 40 20 20 18 22 35 40 49 57 56 51 42 44 52 45 37 42 49 51 47 43 46 47 45 48 50 48 45 44 47 49 52 55 47 42 45 40 45 59 52 43 48 48 52 65 67 66 72 73 66 59 56 56 56 53 60 76 83 81 79 76 77 79 81 87 92 91 90 89 90 90
10 9 10 11 9 10 9 7 12 9 12 19 7 14 42 45 27 23 37 34 17 27 42 47 59 61 52 45 41 50 51 40 39 41 46 54 55 52 50 51 50 42 41 46 45 46 50 48 46 46 41 40 43 42 46 52 48 47 51 53 61 70 76 80 75 72 71 61 55 55 50 56 67 80 90 83 75 77 78 79 82 85 87 87 87 87 86 87
8 10 11 10 9 9 9 10 12 12 15 12 10 33 50 35 21 26 40 42 36 42 49 55 59 49 42 40 42 51 45 38 43 41 46 56 58 60 54 48 52 45 44 53 49 44 48 46 41 38 36 39 45 47 46 46 48 53 52 50 58 60 65 78 74 69 74 70 63 54 51 69 77 77 87 82 73 78 79 79 82 83 85 85 85 86 86 88
8 11 10 9 10 9 9 11 10 13 12 5 21 51 42 21 30 36 35 45 52 51 52 53 47 42 44 46 50 49 35 39 49 43 47 57 57 62 56 48 53 50 48 57 52 45 47 43 39 41 40 40 46 48 48 48 46 50 53 52 59 58 56 70 71 65 74 81 80 70 65 78 82 78 84 80 77 82 80 81 84 86 88 88 90 91 89 91
9 11 10 10 11 9 8 10 11 10 8 10 30 46 35 26 37 39 37 47 52 53 57 54 46 48 51 53 59 52 35 39 48 40 44 52 53 57 56 52 54 51 46 49 52 51 50 49 45 42 41 42 47 47 47 48 44 48 55 51 51 53 53 67 73 66 72 81 80 73 72 78 78 80 85 81 80 81 80 84 88 91 94 92 92 92 90 93
10 12 12 11 10 9 8 8 11 8 4 18 42 47 37 33 37 45 52 57 56 55 55 49 41 41 45 52 60 55 43 41 43 40 39 44 47 52 58 55 49 51 48 44 50 51 48 54 54 44 39 41 44 43 42 42 42 51 58 47 45 54 59 69 76 79 87 87 73 66 75 82 77 79 86 86 84 81 80 86 87 89 94 93 90 86 87 94
11 12 11 11 11 9 8 8 11 9 8 33 64 64 48 40 42 53 63 65 62 55 52 46 39 39 44 48 55 61 56 47 47 48 41 41 44 47 59 58 45 51 54 43 46 52 51 58 58 47 44 43 41 44 48 44 39 46 48 40 46 61 69 73 77 84 92 90 80 73 77 83 85 88 91 87 82 81 82 86 87 87 92 95 90 83 86 95
11 12 10 12 12 8 10 12 8 8 17 45 72 67 51 51 58 63 68 69 62 54 53 48 43 48 50 44 51 65 63 52 53 54 44 41 43 47 59 59 48 55 57 46 48 57 57 57 56 50 45 44 46 52 56 51 45 46 46 49 61 68 67 69 73 77 83 87 89 83 72 76 89 95 92 84 79 83 86 88 89 89 91 93 88 83 86 93
11 12 11 11 12 11 12 10 9 23 41 53 65 63 56 59 64 64 68 68 57 46 48 50 48 52 54 51 55 60 61 61 60 55 48 43 43 51 63 68 68 69 58 47 53 61 60 57 56 54 50 49 51 50 51 51 50 53 59 67 76 74 68 72 72 69 75 83 89 91 82 80 88 89 88 90 87 88 90 89 90 89 89 89 85 81 81 82
9 14 15 10 13 14 9 15 30 54 69 65 63 72 73 67 60 57 61 66 59 48 48 53 54 54 56 56 56 55 60 68 67 57 50 47 46 52 63 74 86 84 66 57 61 62 64 65 64 63 57 51 48 47 49 50 46 51 63 68 71 72 75 85 84 78 84 83 79 88 91 86 86 84 84 90 91 91 91 91 91 89 87 88 83 76 73 72
12 21 18 10 15 12 10 33 56 66 73 66 58 67 74 68 55 49 53 57 56 52 49 52 58 63 63 57 56 60 62 64 65 56 48 50 55 59 64 71 82 81 68 64 63 56 60 72 73 67 58 49 46 50 56 57 53 57 64 65 72 80 81 88 91 86 89 84 75 84 93 90 88 85 85 89 91 92 94 92 91 86 83 84 79 72 68 68
16 21 15 10 15 11 14 41 60 66 70 64 55 56 59 57 49 46 51 53 52 49 46 50 53 53 56 58 59 59 56 54 56 51 48 53 57 61 65 65 66 69 65 63 62 54 56 69 73 68 64 58 52 50 51 54 58 67 73 72 79 83 81 87 89 82 85 89 88 93 94 91 92 87 86 92 91 87 89 92 89 82 79 78 74 69 67 70
16 17 15 14 12 10 23 43 56 71 73 56 49 52 51 49 49 52 56 57 57 53 50 52 50 45 52 62 63 59 54 47 47 49 51 54 54 58 62 59 57 60 61 62 61 55 54 61 71 79 81 75 69 64 60 57 61 73 81 82 82 83 87 90 85 85 91 89 92 100 94 89 93 88 81 84 83 78 79 84 82 76 74 74 71 69 69 76
15 16 14 15 11 12 28 38 48 71 74 56 51 54 51 47 47 52 58 58 56 55 52 50 48 51 60 62 63 67 62 48 45 51 54 55 57 59 58 56 56 57 62 66 59 53 57 62 71 85 88 84 84 79 71 70 74 79 86 88 88 92 95 86 81 94 98 86 89 100 93 83 84 84 79 76 75 73 72 74 74 71 71 71 69 69 74 84
16 22 20 19 15 16 27 29 31 52 64 60 56 51 48 46 40 44 54 54 51 50 50 49 49 53 58 59 65 71 68 60 55 56 62 64 62 59 55 58 59 52 57 63 53 55 74 78 75 81 78 75 77 69 62 71 79 85 94 94 93 98 94 82 86 98 95 91 92 86 80 80 76 75 80 77 73 73 72 71 72 70 69 69 68 70 79 88
21 32 31 26 19 21 33 32 30 41 48 52 52 44 48 55 47 42 45 45 47 46 44 49 53 53 56 61 63 61 65 67 57 54 67 75 73 64 53 53 57 50 49 50 44 60 83 75 70 80 76 70 72 65 63 74 79 88 101 98 93 98 92 85 93 90 83 95 93 69 69 82 74 72 81 78 73 73 71 70 70 69 69 68 67 71 80 88
24 31 31 29 27 33 41 37 37 46 48 55 60 50 51 61 53 46 45 42 43 42 38 45 54 60 67 66 57 54 63 65 55 57 74 81 82 75 57 51 56 52 49 47 43 61 80 70 71 88 85 75 76 74 71 77 82 92 99 95 93 97 94 92 93 81 77 95 90 68 72 81 75 77 81 74 71 72 71 71 69 68 67 65 68 76 84 90
23 27 27 28 31 40 46 40 36 41 46 58 64 53 52 57 49 47 52 48 45 43 41 44 52 65 78 73 61 60 63 59 54 64 80 81 80 79 67 58 58 53 55 62 59 59 66 72 83 93 87 77 78 78 74 75 86 97 94 88 90 93 93 94 90 79 78 87 83 76 80 80 79 82 77 69 72 74 71 70 67 66 66 65 72 81 88 92
18 22 23 26 31 36 40 37 36 46 54 55 50 46 52 53 47 51 56 49 46 47 47 49 54 67 80 77 68 62 57 53 53 61 73 75 74 79 71 62 67 68 67 76 77 61 50 62 84 92 82 76 79 80 77 80 92 100 94 85 86 89 91 93 89 82 83 86 83 84 88 86 81 77 71 70 73 73 71 69 68 68 67 69 78 87 91 93
15 17 16 24 36 38 35 33 39 57 65 54 44 46 49 47 49 58 55 45 45 48 49 54 59 68 77 75 67 60 54 56 58 60 66 67 65 70 66 62 74 83 82 87 90 80 70 74 91 92 73 66 73 75 80 88 89 91 94 92 91 93 91 90 86 79 81 89 92 91 92 87 77 70 69 71 71 71 71 71 71 69 68 75 85 90 92 92
14 16 13 19 34 37 35 37 43 50 48 41 42 46 44 43 50 53 43 38 45 48 49 55 58 61 67 64 60 61 61 63 65 64 66 66 66 67 66 68 73 79 91 101 97 96 95 87 90 91 70 61 69 71 82 92 76 71 89 93 89 89 82 79 80 73 73 88 96 94 89 79 71 70 71 71 70 71 73 74 73 71 73 83 90 92 92 90
Wind_Speed
5 4 3 4 5 6 7 7 6 5 3 2 1 1 1 1 2 4 5 6 8 9 9 8 9 9 12 12 12 9 5 4 5 6 7 7 8 8 8 7 7 7 6 6 7 6 6 6 6 5 5 4 3 2 4 3 6 6 3 2 3 3 4 5 7 7 4 2 1 4 7 6 2 3 5 3 5 7 8 10 11 11 13 14 12 9 6 6
6 6 6 6 6 7 7 8 7 6 4 2 1 0 1 2 3 4 6 8 9 10 10 9 9 10 13 13 12 9 4 4 5 7 8 8 8 8 7 7 7 7 7 7 7 6 6 6 6 6 5 4 2 2 4 2 4 3 3 2 4 5 5 5 7 7 4 2 2 3 5 8 4 2 4 3 4 4 6 9 11 14 16 18 18 16 12 9
8 8 7 7 7 8 8 8 7 6 5 3 2 1 2 3 4 5 7 8 9 10 10 9 9 11 13 12 11 8 4 4 4 7 9 9 9 8 7 6 6 6 6 7 6 6 5 5 5 5 5 4 3 3 3 2 2 2 3 2 5 5 4 5 6 7 7 5 2 2 4 7 7 5 4 4 3 2 6 8 10 15 18 18 20 20 18 14
9 9 9 8 8 8 8 8 8 6 5 3 2 2 3 4 5 7 8 9 10 10 10 10 10 12 14 12 10 7 5 3 4 9 10 9 9 8 8 7 7 7 6 6 6 5 5 4 4 4 4 3 2 3 3 3 2 2 4 4 4 4 2 4 5 6 7 6 3 2 3 5 7 8 7 4 1 4 8 11 11 12 12 12 17 20 19 17
9 10 10 9 9 8 8 9 8 7 6 4 4 4 4 5 7 8 9 9 10 10 10 11 12 13 14 12 9 8 7 3 4 9 10 10 10 9 9 8 9 8 7 7 6 5 4 4 4 3 2 1 1 2 2 3 4 2 4 5 3 4 1 4 3 5 6 5 4 3 3 4 4 8 10 7 4 6 5 6 7 6 5 7 11 15 18 18
9 10 10 10 10 9 9 8 8 8 7 6 6 6 7 8 8 9 9 9 10 11 11 11 12 13 13 12 9 7 6 2 4 9 10 11 11 11 11 10 9 8 8 7 7 6 4 3 3 2 0 1 2 3 1 4 5 3 4 4 3 4 3 4 3 4 6 6 5 4 5 5 4 4 8 12 15 13 7 6 6 6 7 8 8 10 13 15
8 9 10 10 10 10 10 9 8 8 7 7 6 6 7 8 9 9 9 9 10 11 11 12 12 12 12 11 8 6 4 2 5 8 9 11 11 11 12 11 10 9 8 8 8 7 5 4 3 2 1 2 2 3 0 3 5 3 3 3 2 5 6 6 5 5 7 8 7 5 5 5 5 3 4 12 20 17 14 15 14 13 12 11 9 8 9 9
6 7 8 9 10 10 11 10 10 9 8 7 7 7 6 7 8 9 9 9 10 11 11 12 12 12 11 9 8 6 4 5 7 7 8 10 11 11 11 11 10 10 9 8 8 7 5 3 3 2 1 1 2 2 1 2 2 4 4 3 2 5 7 8 8 8 9 9 8 6 5 5 6 4 4 11 16 12 12 13 11 11 10 11 10 7 7 8
5 6 6 7 8 9 10 11 11 10 9 9 8 8 7 7 7 7 8 8 10 10 11 11 11 12 9 8 8 5 4 7 8 7 7 8 10 11 11 11 10 10 10 9 9 7 4 2 1 1 1 2 2 2 3 1 3 4 4 4 3 5 6 8 9 9 9 8 7 6 5 5 4 4 4 5 7 3 4 6 6 6 4 6 8 7 8 9
5 6 6 6 7 8 10 12 12 10 9 10 9 9 9 8 8 7 7 8 9 9 9 9 10 11 9 8 7 4 4 8 8 8 8 9 10 11 11 10 10 10 9 9 8 7 5 3 2 1 1 1 2 2 3 3 3 2 3 6 7 8 7 7 7 6 7 7 7 6 5 4 3 2 2 8 9 7 8 6 5 4 3 5 7 8 9 9
7 8 7 7 8 9 11 13 13 10 9 11 12 11 11 10 10 9 8 8 9 9 8 8 8 9 8 8 6 4 5 7 7 8 9 9 9 9 9 9 9 9 9 8 7 6 5 3 2 2 1 1 1 2 3 3 3 3 4 7 8 7 5 4 4 4 4 4 5 5 3 2 2 3 5 16 13 8 10 8 7 7 6 6 7 8 9 8
8 9 9 9 10 11 12 14 13 11 11 14 14 13 12 11 11 10 9 9 10 9 8 8 8 8 8 7 7 5 6 7 7 10 11 11 10 9 9 8 8 8 8 8 7 6 5 4 3 2 2 3 1 1 2 2 2 3 3 4 7 6 5 5 4 2 3 2 2 2 3 3 1 3 12 22 17 7 7 10 10 9 8 6 6 7 8 7
9 10 10 10 10 11 12 13 12 12 14 15 15 14 12 11 10 9 9 9 10 9 7 7 7 8 7 5 6 6 6 7 8 9 11 12 10 9 10 9 7 7 8 7 6 5 4 4 3 1 1 3 1 0 2 1 1 3 2 1 5 7 4 4 5 1 2 1 1 0 3 4 1 4 17 24 21 15 12 13 12 10 9 8 8 8 10 10
9 9 10 10 10 11 11 11 12 13 15 15 15 13 11 10 9 8 7 7 8 8 7 6 6 7 6 4 5 7 6 8 10 9 10 9 7 7 8 9 9 7 7 6 6 5 4 4 2 1 2 1 1 2 2 3 3 2 1 2 2 3 4 5 5 1 1 1 1 1 2 4 3 5 22 26 22 20 16 14 12 12 12 12 13 15 17 18
9 9 10 10 10 10 10 10 12 14 15 15 14 12 10 9 8 7 5 6 7 6 7 6 6 5 4 5 5 8 8 9 10 9 9 7 6 6 6 9 9 7 6 5 4 4 3 3 2 2 2 1 2 1 3 4 3 3 2 3 2 1 4 6 5 2 2 1 1 2 2 5 2 7 25 26 22 19 14 12 13 15 18 20 21 24 27 29
10 10 10 10 11 11 11 11 13 15 17 17 14 10 11 10 8 6 6 8 7 6 6 5 5 3 4 4 5 12 14 11 10 9 9 8 8 8 7 8 7 6 5 3 3 2 2 3 2 3 2 1 2 3 3 4 4 3 1 3 3 2 4 5 3 3 3 1 3 3 2 4 1 11 27 25 20 17 11 12 15 20 23 26 29 33 35 35
10 10 10 10 11 12 12 12 13 15 16 17 14 10 12 13 8 4 8 10 7 4 2 5 5 3 5 5 5 16 19 11 9 10 10 10 11 10 9 8 6 5 5 2 2 1 2 2 2 2 3 2 2 4 4 4 3 3 2 1 3 2 2 4 3 3 6 2 2 3 2 4 4 14 27 25 18 14 11 15 19 24 27 31 34 35 36 36
9 9 9 10 10 11 12 13 13 15 15 16 16 12 13 14 7 5 11 10 6 3 4 8 8 5 4 8 8 18 17 8 9 12 12 12 12 11 9 7 4 3 2 1 1 2 2 1 3 1 4 4 4 5 1 3 2 3 4 2 3 2 2 4 4 2 6 3 1 3 4 4 8 13 23 25 17 13 14 18 22 26 28 30 33 34 34 36
9 9 9 9 10 11 12 13 14 15 15 15 16 13 12 14 6 5 13 11 8 5 1 9 10 4 2 7 12 19 12 6 10 14 14 12 11 10 8 7 4 1 1 2 2 4 3 3 3 3 4 4 3 2 4 6 4 3 4 3 4 5 4 5 6 3 3 3 3 4 2 4 8 10 17 22 18 19 18 20 22 24 26 28 30 33 34 35
9 8 9 9 11 11 13 14 15 15 15 15 17 13 11 13 6 4 13 16 15 11 5 9 11 7 4 7 15 18 8 4 10 17 16 14 13 8 8 8 3 5 5 1 3 4 4 4 3 2 4 4 5 4 4 3 4 2 2 2 4 4 5 5 4 4 1 0 3 1 4 6 7 7 12 18 21 22 18 18 20 21 24 27 29 32 33 34
8 9 10 10 11 12 13 15 15 15 16 16 15 13 10 11 5 2 8 13 15 12 10 12 13 12 8 7 17 17 9 4 8 18 19 16 14 7 8 9 3 6 6 2 2 2 4 5 1 4 5 4 4 3 3 3 3 1 1 2 3 3 6 4 2 5 3 0 3 1 5 6 6 6 10 17 18 17 16 17 19 21 23 25 27 29 30 30
9 10 11 11 12 13 14 16 16 15 15 15 14 14 12 10 6 2 4 7 11 12 10 10 13 17 12 8 16 16 10 8 10 20 22 19 16 7 7 9 5 2 5 3 2 4 4 2 4 5 3 1 2 3 4 3 2 1 1 1 3 3 5 4 3 5 3 0 3 1 4 4 4 5 10 16 14 14 18 19 18 21 22 23 24 26 28 28
9 10 11 12 13 14 15 16 15 13 15 14 14 15 12 11 7 3 5 6 7 10 10 9 12 20 17 10 16 14 10 10 10 20 25 21 19 11 7 7 4 2 5 5 4 3 3 2 4 1 2 2 2 3 4 4 3 1 0 1 4 3 2 3 3 4 2 1 2 1 3 2 2 5 8 14 17 19 22 23 22 22 22 22 22 24 26 27
8 10 11 12 12 13 14 14 13 13 15 13 13 14 11 11 7 3 4 4 3 7 9 10 11 19 19 13 18 11 7 11 11 18 24 23 18 9 5 5 4 4 3 3 6 3 2 3 2 3 3 2 2 4 5 4 4 3 2 2 4 4 2 4 4 5 4 2 0 0 2 1 2 4 5 9 16 19 20 23 23 22 22 22 24 25 26 26
8 9 10 12 11 13 14 13 12 13 14 11 11 12 10 9 5 3 3 3 2 6 8 9 9 15 17 14 18 7 5 10 15 18 21 23 19 6 3 5 4 5 3 1 5 3 2 3 2 3 4 5 3 4 4 2 4 5 2 3 5 4 3 4 5 6 4 3 2 2 3 2 2 4 4 4 9 13 16 19 19 19 20 22 24 25 24 24
9 9 10 12 12 14 14 12 12 13 12 10 11 11 8 8 3 4 3 3 2 6 7 8 6 12 15 15 18 6 4 7 12 17 20 20 19 6 3 6 3 4 3 1 2 1 1 3 3 4 4 6 6 4 4 2 4 4 2 2 2 1 3 5 5 4 2 2 2 2 1 3 1 4 3 3 6 9 11 14 15 17 18 19 21 22 22 22
10 10 11 13 13 14 14 11 12 12 11 10 11 10 7 6 1 5 2 4 4 5 5 7 5 10 15 14 17 6 2 10 10 15 21 19 17 7 3 5 2 3 3 1 4 1 1 5 6 6 5 5 6 3 2 2 3 4 2 2 1 4 5 5 2 1 2 2 3 2 1 3 2 2 1 2 6 8 9 10 11 14 16 17 19 20 20 19
10 11 11 13 13 14 14 11 12 12 12 11 11 10 8 4 3 5 4 4 4 4 3 6 4 11 15 10 15 11 4 10 8 10 19 19 16 8 5 4 2 1 4 3 4 3 1 5 5 5 6 5 2 2 4 1 1 4 3 2 3 4 3 1 2 2 1 3 3 4 2 2 3 0 1 1 4 5 6 6 7 10 12 15 17 17 17 17
10 11 12 13 13 14 13 12 12 12 13 12 11 10 7 2 4 3 6 3 3 4 3 7 6 13 19 8 12 16 8 9 10 9 15 18 17 8 4 4 4 3 3 4 2 3 2 3 2 3 5 3 2 5 3 2 2 5 2 2 1 3 2 2 3 2 2 3 2 5 3 1 3 1 1 0 2 2 3 4 5 8 10 11 14 14 14 15
10 11 11 12 12 12 12 11 12 13 14 13 11 9 4 2 3 5 5 0 2 4 5 8 5 12 19 8 8 16 8 6 12 12 14 19 24 19 7 5 7 4 2 5 2 2 3 2 2 4 3 2 4 3 0 2 4 6 3 3 1 4 3 2 2 3 4 3 3 6 3 1 2 2 2 0 1 3 5 4 4 8 10 10 11 12 12 12
11 11 12 12 12 12 12 12 13 15 15 13 11 7 1 2 4 6 3 2 1 5 6 6 5 7 12 5 4 12 7 6 13 13 11 13 22 24 12 6 9 5 4 7 5 5 6 3 2 3 3 3 2 3 2 1 4 4 3 3 3 4 4 3 4 4 4 2 5 5 2 2 1 2 0 2 3 3 5 4 4 6 8 10 10 9 10 11
11 11 11 12 12 12 13 13 15 15 14 13 10 3 3 2 5 3 1 4 2 4 3 2 4 6 6 3 3 7 4 5 10 8 5 5 7 12 10 4 5 5 5 6 6 6 5 2 3 1 4 8 5 3 4 3 5 6 4 5 5 4 4 4 4 2 0 3 3 1 2 0 2 1 2 4 4 5 6 7 7 7 8 9 8 8 9 11
9 10 10 12 12 13 14 13 14 13 12 13 7 1 5 5 3 1 3 4 2 2 2 2 4 5 4 4 5 6 3 3 8 6 2 2 4 4 5 6 5 3 3 4 4 6 4 4 5 3 3 9 6 3 5 4 5 6 3 4 4 3 5 4 3 2 3 4 4 1 2 2 1 2 3 3 5 8 11 12 11 10 9 7 7 8 9 9
7 8 9 11 12 13 13 12 12 11 11 10 4 3 8 6 1 2 3 3 2 3 2 2 5 5 3 4 3 5 3 2 6 6 4 4 5 4 4 8 9 4 1 2 3 4 4 4 5 4 3 7 6 3 1 1 2 2 1 3 4 3 2 3 2 2 5 5 5 3 1 2 1 2 2 3 7 11 14 14 13 13 10 9 8 9 10 9
6 7 9 12 12 11 11 10 10 10 8 6 8 7 6 2 3 1 1 4 2 4 4 2 4 5 4 3 3 3 3 2 4 5 5 5 3 3 3 5 7 4 2 3 1 1 3 4 5 2 2 4 5 2 1 2 2 1 1 4 3 1 3 1 2 3 3 4 4 3 1 2 1 2 2 5 7 9 11 11 12 12 11 11 9 9 11 11
5 6 10 11 9 10 12 10 9 10 5 6 10 6 3 1 2 2 1 2 1 3 5 5 5 5 4 5 4 4 3 1 3 4 3 3 3 3 3 2 4 5 3 2 1 1 3 4 6 3 2 4 5 3 2 4 1 1 3 3 3 2 5 1 2 2 2 2 3 2 1 1 1 1 1 3 3 4 5 7 9 9 9 10 12 12 14 13
4 7 11 11 10 12 12 10 10 8 8 13 10 2 2 1 1 2 1 2 1 2 3 4 4 3 3 3 4 7 5 3 3 4 2 2 2 4 4 2 2 3 3 1 1 1 1 4 6 4 2 4 4 3 4 7 4 3 3 3 3 2 4 3 1 4 4 1 4 3 2 4 3 1 1 1 1 1 2 5 8 9 8 10 14 17 16 14
3 6 11 13 13 13 12 11 7 5 14 16 7 2 2 0 0 1 2 2 1 1 4 3 2 2 1 1 3 6 6 4 4 4 3 2 2 3 4 2 2 5 6 2 1 0 2 1 6 2 1 6 4 4 4 7 7 5 2 3 2 3 2 2 2 3 3 3 5 4 3 2 1 2 4 5 5 3 1 4 7 10 10 11 16 18 17 15
1 3 11 16 13 13 14 9 5 11 16 10 2 2 1 0 0 1 2 2 1 2 4 0 1 2 1 0 2 4 4 4 4 3 3 2 2 3 4 1 3 9 11 3 2 1 2 2 4 4 2 4 4 4 2 4 6 5 3 4 3 2 2 1 0 0 1 3 4 4 5 2 1 3 6 3 2 1 2 4 5 9 11 11 14 17 17 16
2 2 9 14 11 11 10 7 12 17 12 4 3 2 1 0 0 2 3 2 1 2 2 1 1 2 2 2 1 2 2 2 2 2 2 2 1 1 3 2 3 10 12 5 3 2 2 3 2 6 4 3 3 2 1 1 4 5 5 5 5 2 0 1 0 1 1 2 3 4 5 1 1 3 5 5 4 4 4 3 4 9 10 9 13 17 18 18
3 3 8 12 11 7 5 10 15 13 6 2 3 2 0 1 1 2 3 2 2 3 1 3 2 0 1 2 2 1 2 2 2 1 1 2 2 2 4 6 4 6 7 5 3 2 1 2 1 4 5 3 1 3 2 2 1 4 4 2 3 2 2 2 3 1 2 1 2 4 4 1 0 2 2 4 4 4 3 1 2 8 10 9 13 18 20 21
7 3 7 11 9 6 10 12 10 5 4 3 3 2 1 1 1 3 4 3 2 2 2 3 2 1 1 1 1 1 1 2 2 2 1 1 2 1 6 10 8 4 2 1 2 2 0 3 1 3 3 2 4 3 1 2 4 6 4 2 1 1 3 2 2 2 1 1 1 2 3 1 2 1 2 3 4 2 2 1 2 9 11 10 15 21 22 21
13 8 8 8 6 8 13 9 6 5 5 2 2 3 3 2 2 3 3 4 3 2 2 2 1 1 0 1 0 0 0 1 0 1 1 0 1 2 7 11 9 3 1 1 2 2 1 3 2 3 4 4 4 3 1 2 5 6 3 3 2 1 1 3 4 1 1 1 1 2 4 1 3 2 3 4 3 3 4 3 6 12 13 13 18 22 23 18
19 18 16 11 5 5 9 5 1 3 2 1 3 4 3 3 4 3 2 4 3 1 2 1 1 2 1 1 1 1 1 1 1 1 1 1 1 3 7 10 8 5 3 1 2 4 2 1 2 3 5 6 6 6 4 2 4 4 2 3 3 3 3 1 1 2 0 0 3 2 5 2 3 4 2 3 3 6 6 6 10 14 15 16 20 22 21 15
11 14 20 20 14 12 11 6 6 5 1 2 4 4 3 4 5 5 2 3 4 2 2 1 2 1 1 1 2 2 1 2 1 2 2 1 0 3 7 9 9 8 6 1 2 3 1 1 2 5 2 2 3 4 4 4 4 3 2 4 5 4 3 1 1 2 0 2 4 3 5 4 1 4 2 2 4 7 9 10 12 14 16 19 22 23 20 12
5 4 9 17 21 23 18 10 8 6 3 4 3 3 3 2 2 5 3 3 5 4 2 1 2 1 2 4 3 3 3 2 2 2 2 2 2 2 5 5 8 13 9 3 4 3 4 2 2 5 5 4 5 6 4 3 3 2 3 5 4 2 1 2 2 1 1 4 4 3 5 9 8 3 0 4 5 7 10 13 14 16 19 22 24 23 17 10
5 2 2 5 11 17 17 13 11 6 3 3 2 2 3 3 2 4 4 2 4 4 2 2 4 3 2 3 3 2 3 3 3 2 2 2 3 4 4 2 7 14 8 4 7 3 5 3 3 3 4 5 6 6 4 3 0 1 0 2 4 4 1 4 3 2 2 3 4 5 8 11 12 6 3 6 7 8 11 14 17 20 23 26 26 23 16 10
6 4 4 5 4 4 7 9 11 11 6 4 3 0 3 4 3 2 2 2 3 4 3 2 4 4 1 1 2 2 4 4 3 1 1 1 3 4 4 1 5 13 10 7 8 5 6 2 1 1 4 7 5 4 2 0 2 3 2 1 3 3 2 4 2 4 2 2 7 10 11 13 11 4 4 6 8 9 13 16 19 23 26 28 27 21 13 9
11 8 7 8 7 4 4 3 6 11 9 5 3 2 2 3 3 1 2 2 3 4 5 2 5 5 2 0 3 2 3 2 2 2 1 1 3 2 3 1 2 11 13 7 6 5 3 0 1 1 4 7 5 2 1 3 3 2 1 3 2 2 1 4 4 4 3 6 10 10 12 13 6 1 5 10 10 11 15 20 22 24 28 30 25 16 11 11
12 10 10 14 12 8 6 3 3 6 6 5 3 2 0 2 2 2 1 1 2 4 4 2 5 5 1 2 4 2 1 2 2 3 3 1 2 0 1 0 2 8 11 4 3 5 4 2 1 2 3 6 5 4 3 3 5 4 2 2 2 4 3 3 4 2 4 7 8 8 11 9 2 3 11 13 11 13 17 22 23 25 29 28 19 12 12 15
17 16 16 16 9 7 6 4 3 4 3 4 3 0 1 1 1 2 1 1 2 1 2 2 4 2 2 3 3 2 3 3 4 5 3 2 1 2 1 1 2 4 6 3 3 5 4 3 2 4 3 5 3 5 5 2 4 1 2 3 3 3 3 3 2 3 6 8 9 9 9 5 3 9 15 14 13 16 19 21 24 28 29 22 14 13 16 20
18 15 13 13 7 5 5 3 4 5 2 2 1 0 1 1 1 0 0 1 1 2 3 2 1 0 2 2 2 1 5 5 5 5 3 3 3 2 0 1 1 1 0 2 2 2 2 2 2 3 2 4 3 5 4 4 4 4 3 2 3 4 4 4 4 5 5 5 6 7 6 5 8 13 15 14 14 18 20 22 27 30 26 15 11 16 20 25
Wind_Direction
76 65 39 19 10 10 10 9 11 11 11 5 12 126 124 40 351 349 350 350 344 339 332 329 330 332 335 335 341 334 302 301 315 337 351 1 3 358 345 324 306 293 283 281 276 272 271 271 268 254 247 245 252 192 165 150 148 153 122 132 213 197 200 188 186 194 183 285 245 193 198 197 261 211 209 248 241 238 240 238 235 235 235 237 235 222 211 193
60 46 31 24 20 20 20 18 19 18 18 8 8 137 3 344 343 351 351 348 342 337 332 330 333 336 338 338 344 345 323 314 322 342 358 2 355 352 346 330 310 297 291 286 283 284 276 272 270 267 258 237 243 202 180 162 147 136 98 158 222 201 207 199 186 194 199 248 187 187 208 206 228 202 192 236 250 237 241 247 239 239 241 240 239 233 227 216
49 41 32 27 27 27 27 26 25 25 24 18 3 322 331 336 340 347 344 345 342 339 335 333 334 339 342 339 345 351 331 324 352 6 3 357 350 347 347 341 327 309 298 291 287 288 285 284 278 275 261 236 235 209 185 168 174 146 121 213 244 216 225 230 216 217 223 235 199 198 202 209 228 206 189 218 264 262 234 242 234 240 250 246 242 238 233 227
47 43 37 33 31 27 24 23 22 22 20 14 356 328 328 330 333 338 339 343 345 344 339 336 336 340 345 342 346 355 340 334 14 7 358 354 352 347 345 345 340 328 317 309 301 296 289 292 297 287 253 235 224 200 193 189 197 164 157 207 229 187 227 254 245 242 229 231 238 197 175 232 233 207 207 191 260 278 244 246 244 249 265 257 246 241 236 231
49 46 44 42 37 30 24 19 16 11 2 348 331 320 319 320 325 330 336 341 345 348 342 339 339 341 348 346 344 349 352 3 359 355 353 353 354 350 347 345 341 334 331 325 319 315 299 286 303 296 245 245 156 173 230 191 174 181 204 229 203 157 224 296 281 238 223 222 219 173 178 246 221 208 221 199 209 254 248 253 250 252 267 254 242 237 234 231
49 45 46 44 41 36 30 24 18 12 2 348 331 319 316 316 319 325 332 338 343 348 343 342 342 343 349 351 346 343 4 35 336 348 349 347 352 353 348 344 343 337 333 332 330 333 324 311 312 299 301 10 171 185 240 186 180 223 258 272 239 203 238 298 296 229 230 216 205 201 219 224 192 229 234 217 233 246 249 262 266 265 256 245 232 223 225 227
44 40 40 39 38 35 30 26 19 12 6 358 346 332 322 318 318 322 328 333 338 343 342 342 345 346 349 355 357 349 16 37 341 345 341 340 347 350 349 343 345 343 340 340 341 343 338 332 313 280 58 11 233 198 201 199 190 205 269 307 282 249 247 267 269 248 239 225 229 227 220 214 201 234 239 237 252 258 258 265 270 272 263 249 238 228 221 218
35 34 33 33 34 32 29 23 14 9 1 355 348 340 330 321 316 317 322 327 331 335 336 338 343 347 349 356 0 359 25 20 350 341 336 337 339 345 348 343 345 347 347 348 351 352 340 336 311 268 191 283 230 194 148 256 226 188 239 289 284 261 256 260 264 258 244 235 244 229 228 232 212 232 257 268 279 271 256 264 270 278 273 247 234 231 213 202
21 20 21 24 26 27 24 17 10 4 358 353 346 339 332 323 314 310 316 320 323 328 329 331 339 346 352 356 359 11 29 5 349 343 342 337 335 342 347 343 345 347 350 353 358 358 352 9 340 260 231 228 194 179 143 186 259 199 223 276 265 262 271 266 262 255 241 238 232 220 254 245 210 252 268 313 334 320 282 291 295 302 293 224 208 205 198 194
359 359 3 6 8 11 10 9 4 358 357 355 347 339 330 322 315 309 313 316 322 329 326 325 335 346 354 357 8 41 16 357 354 348 343 339 337 340 340 339 343 347 351 354 354 355 356 12 357 307 259 215 143 181 168 169 247 242 265 279 266 267 280 271 262 251 235 239 223 216 266 235 169 194 293 353 358 351 344 338 342 11 86 157 181 186 188 192
353 355 357 357 356 357 357 358 357 356 354 350 344 337 328 319 313 309 312 315 321 332 329 323 333 348 355 3 38 69 4 357 355 346 344 344 340 331 331 338 341 340 345 349 344 345 350 353 343 324 273 213 153 235 220 213 258 296 310 290 282 287 298 286 271 254 227 242 226 215 264 253 143 127 356 352 350 341 356 20 41 57 98 141 166 174 180 184
5 2 2 1 358 356 353 353 355 358 351 345 341 335 331 324 314 307 308 312 319 330 330 325 332 347 355 17 49 42 359 353 346 347 349 344 338 334 335 339 341 335 333 337 333 335 342 334 319 308 239 199 211 290 228 239 276 299 344 302 303 340 352 340 338 268 209 242 227 209 304 324 54 60 11 10 15 9 13 37 51 73 97 120 144 157 159 145
16 12 11 7 3 359 356 356 0 360 351 345 341 337 336 331 322 310 307 311 318 326 327 327 333 345 356 32 44 18 357 351 344 344 342 335 333 337 339 338 342 337 325 325 327 331 335 330 327 306 201 194 213 192 249 331 331 291 28 32 318 354 351 333 354 305 191 231 246 118 307 308 151 38 10 10 16 21 36 45 53 78 94 106 116 124 122 109
25 22 17 13 10 7 6 9 9 2 355 348 342 340 338 337 335 323 317 320 321 325 325 326 331 342 7 53 42 19 9 350 337 329 331 330 329 334 333 332 337 334 322 315 313 317 331 341 350 43 119 123 155 174 307 360 24 294 347 36 356 352 293 309 352 12 132 233 270 118 252 276 207 24 7 4 5 15 37 48 59 83 94 102 105 108 105 99
33 27 23 23 21 20 21 21 16 9 4 355 350 352 353 351 347 342 346 343 332 323 318 321 333 347 37 70 46 19 3 343 333 333 343 343 335 336 333 331 332 333 326 311 301 303 329 341 352 53 106 109 97 95 347 348 8 13 332 313 347 17 280 312 356 40 73 296 319 88 238 282 220 7 2 3 2 10 37 61 81 96 101 105 104 105 103 101
32 28 28 29 28 31 31 26 22 17 14 7 4 9 9 359 351 0 9 355 341 321 315 331 346 16 60 59 37 7 356 352 353 355 357 354 345 338 336 336 334 337 337 316 296 282 316 345 46 67 80 107 83 81 23 1 343 5 44 271 292 324 306 321 355 33 41 355 332 28 239 273 12 5 0 7 6 9 49 84 100 107 107 108 105 105 104 105
29 28 27 27 27 31 31 27 22 16 16 15 14 14 11 5 1 18 9 359 357 353 39 29 7 92 66 46 31 359 357 7 11 4 355 350 347 342 336 335 332 331 334 319 303 288 321 7 123 84 48 59 76 80 25 352 323 331 21 286 265 266 303 316 317 5 26 38 316 359 240 263 353 359 3 13 12 18 71 99 106 109 107 107 106 105 105 105
28 26 24 22 19 20 20 18 15 12 11 12 14 12 11 9 9 24 11 6 12 39 89 31 27 126 57 29 18 353 355 19 18 7 355 347 345 347 347 347 345 318 315 117 55 43 9 32 136 104 23 18 28 69 52 270 250 297 307 304 299 290 254 279 276 327 16 22 291 319 277 304 355 357 5 15 24 45 84 102 104 105 104 104 103 101 102 102
24 21 18 14 10 9 8 6 7 8 5 7 11 8 9 11 15 36 22 28 48 58 87 15 31 111 324 358 1 351 357 31 21 10 359 355 351 349 358 1 9 25 93 124 17 28 26 23 71 24 349 331 332 113 197 222 197 243 260 240 278 291 271 259 262 279 18 6 281 277 283 355 3 359 3 12 38 63 79 95 97 99 99 97 97 96 98 98
15 12 8 4 3 2 1 2 1 359 1 5 6 4 10 11 16 39 29 46 59 61 72 37 43 52 0 350 356 356 9 37 20 12 5 3 358 357 13 6 24 57 55 183 317 13 43 42 36 310 274 275 272 218 203 196 173 188 199 221 261 270 282 273 273 306 15 321 276 241 82 39 14 4 2 18 45 55 61 80 86 91 93 91 93 93 94 94
7 4 360 358 355 353 354 356 355 354 359 1 1 13 24 16 15 7 28 53 57 59 69 54 48 37 21 3 0 3 16 26 15 13 11 8 5 6 15 15 54 41 11 265 264 337 48 61 22 253 236 250 269 204 145 113 122 113 171 260 295 249 268 279 281 319 342 147 287 73 79 45 27 20 16 30 46 43 46 73 84 89 91 90 93 92 93 95
0 355 353 351 347 346 346 348 350 353 357 355 2 22 30 23 26 43 76 82 58 56 63 52 45 30 21 10 4 6 18 22 11 11 12 12 17 25 21 31 70 28 343 345 4 353 27 58 254 253 212 159 44 102 109 89 88 79 119 324 316 268 277 311 332 329 353 105 282 25 78 59 42 46 37 38 48 49 57 79 87 89 90 88 90 92 94 97
353 349 347 344 342 343 342 344 347 350 354 356 7 19 21 17 27 85 116 113 63 49 47 41 36 22 18 11 1 7 34 32 5 5 10 12 19 32 36 40 64 21 358 24 56 35 6 295 266 292 118 118 26 45 62 41 30 254 263 308 289 309 328 302 319 326 322 243 256 27 75 88 45 53 52 44 52 61 68 81 84 84 87 87 90 91 92 94
346 345 342 340 341 341 341 343 344 347 351 356 5 9 10 10 21 113 123 122 72 34 34 31 25 17 14 7 360 6 58 40 13 4 9 12 14 23 38 36 50 29 356 46 82 89 296 287 339 48 74 70 334 4 40 36 355 299 229 223 267 317 305 243 290 319 316 345 321 12 25 64 45 43 47 44 53 58 66 76 75 76 84 89 91 89 89 89
338 340 338 339 339 339 340 340 343 348 350 354 357 357 3 3 9 128 118 115 38 356 15 18 17 15 9 5 3 7 112 41 19 8 7 11 11 14 40 25 43 16 327 68 63 57 321 315 358 45 41 39 41 13 12 28 356 325 249 219 251 280 280 271 324 341 346 358 4 28 351 316 39 55 43 34 51 53 57 64 63 68 79 84 85 84 85 86
332 331 330 334 334 336 340 340 346 351 351 354 351 351 357 351 7 141 106 88 14 337 358 4 7 7 1 2 2 11 132 16 9 12 9 8 7 17 39 9 46 21 327 182 41 67 37 3 43 66 45 35 48 33 354 55 44 336 277 195 225 244 285 293 335 355 334 304 324 37 343 269 349 60 42 40 63 59 55 55 54 62 73 79 81 83 84 81
331 329 327 330 331 337 344 346 350 354 358 357 350 349 346 345 104 158 71 49 12 328 342 352 358 358 355 2 8 32 122 341 352 13 10 7 6 32 66 1 43 13 316 121 29 346 346 8 28 40 43 41 44 28 330 75 55 309 251 147 275 299 292 291 334 265 246 288 311 348 145 251 297 60 28 48 75 66 58 54 51 60 71 79 82 82 80 76
330 329 327 331 335 341 347 352 352 355 359 355 350 349 342 351 156 163 89 78 340 328 343 341 346 355 355 12 27 48 68 1 8 3 8 14 10 33 79 24 115 319 335 61 28 314 356 30 25 25 39 45 45 265 263 160 353 280 225 207 268 291 284 232 132 199 276 5 324 332 26 272 280 72 299 354 77 67 63 60 51 62 73 81 83 80 76 70
331 331 332 338 342 344 347 352 352 352 352 350 351 346 339 28 156 122 75 109 314 341 343 344 342 348 354 13 31 31 42 29 23 1 19 31 21 39 103 28 90 145 4 50 72 298 1 59 51 58 59 25 276 258 247 151 286 280 255 254 234 65 48 88 109 132 41 28 302 316 344 283 282 251 198 5 88 99 88 72 60 73 81 87 87 82 73 64
336 338 342 347 347 347 347 346 346 347 346 346 347 345 354 88 113 73 43 325 326 338 321 351 346 339 356 12 12 12 24 26 12 11 32 41 36 47 77 19 36 93 19 21 57 311 345 78 72 61 65 276 262 286 307 160 278 301 338 317 342 53 41 51 65 96 56 3 277 294 308 103 314 262 163 5 290 158 135 115 88 83 87 93 91 81 69 56
341 346 350 351 348 347 347 343 343 343 341 340 340 348 80 81 68 88 59 280 319 345 340 358 346 348 13 38 356 356 3 359 4 18 27 29 34 37 39 13 9 28 21 7 5 352 9 46 31 28 21 332 293 341 14 182 300 337 10 348 344 357 16 22 357 44 58 319 262 281 298 143 240 261 118 356 352 86 119 126 112 92 89 94 90 74 56 42
348 352 352 351 349 347 345 340 339 339 336 338 339 344 136 57 29 87 299 316 332 353 354 323 331 357 7 25 3 343 341 346 1 29 37 18 39 34 35 34 352 2 15 3 351 355 7 359 323 312 19 15 15 349 353 358 2 9 16 21 17 354 5 6 343 13 75 255 242 310 358 215 222 266 23 17 27 55 80 99 107 102 97 93 80 55 35 24
354 357 353 350 349 346 344 339 337 339 337 336 332 357 91 73 37 261 284 331 353 338 334 279 313 338 332 1 5 336 344 354 353 12 40 51 64 42 31 33 22 25 6 351 357 0 343 305 351 29 5 13 31 29 357 339 358 10 19 41 42 25 9 335 313 336 302 275 261 293 351 291 258 39 20 32 66 78 85 89 91 91 86 73 54 31 13 1
359 3 354 352 352 346 345 342 339 341 338 344 1 77 63 71 221 303 308 285 294 328 346 305 313 337 22 38 345 329 12 4 354 11 7 32 48 20 9 15 19 37 66 27 21 15 5 312 356 31 333 351 28 54 9 281 358 355 195 106 79 80 44 299 273 305 303 296 292 303 321 248 267 14 16 96 93 89 89 85 79 74 64 49 36 19 3 346
4 5 357 355 354 352 354 349 349 350 343 22 59 65 71 99 245 343 305 270 300 325 319 337 352 11 23 355 327 15 54 331 348 34 26 29 52 13 358 355 359 15 53 41 340 10 41 276 281 357 325 355 21 346 290 90 44 320 160 80 36 149 153 215 232 229 281 315 312 301 226 200 136 49 78 104 96 90 89 81 70 62 50 38 23 6 356 340
12 14 9 1 1 8 4 0 5 359 360 83 67 54 106 164 239 161 235 300 344 316 320 352 25 31 353 321 333 7 43 316 344 38 36 39 67 21 2 314 342 15 48 53 304 352 32 282 289 10 31 38 35 337 342 52 16 323 46 21 301 188 137 119 293 300 35 5 301 303 296 298 30 72 65 76 82 89 88 74 58 49 38 27 15 2 347 328
30 26 15 10 18 17 8 16 20 17 71 88 76 78 173 171 172 185 295 336 288 296 15 21 16 20 343 317 322 334 348 349 355 28 33 30 42 8 355 321 337 27 32 24 241 253 83 289 310 25 27 347 29 51 45 47 49 55 32 315 292 81 95 96 358 344 20 326 288 331 327 305 328 4 353 324 257 160 95 65 45 28 15 11 6 357 340 320
50 34 20 15 16 14 14 24 25 70 87 78 73 119 144 121 207 261 321 348 273 6 61 46 344 29 21 325 310 321 346 360 355 19 37 23 24 15 7 330 328 18 7 349 233 307 102 313 306 341 308 310 359 76 42 21 42 77 67 309 28 60 355 28 36 338 345 305 299 313 303 305 22 346 307 264 237 212 100 61 39 15 7 6 358 349 338 323
65 39 23 13 13 23 26 32 82 98 84 71 79 117 87 294 32 342 346 343 275 77 70 56 304 6 28 20 317 320 354 14 353 9 52 37 14 32 35 330 311 349 352 13 141 306 92 106 294 285 270 305 5 50 17 343 6 44 47 360 31 119 193 322 355 26 326 296 305 316 317 341 86 330 330 306 239 134 54 35 25 9 4 360 351 346 342 332
84 53 23 14 21 34 32 64 86 77 72 84 146 120 4 150 26 354 13 6 72 77 65 186 177 347 336 1 9 338 1 25 3 1 46 30 4 41 35 17 320 334 344 21 89 3 28 97 276 291 320 13 28 15 3 314 351 18 36 16 357 338 321 7 295 109 93 285 301 314 311 330 90 348 18 54 67 77 58 18 7 2 351 341 345 347 344 338
91 59 18 20 29 31 61 83 67 60 69 96 96 94 4 76 40 11 33 47 76 73 115 154 125 79 327 358 3 344 346 4 22 40 40 20 38 49 2 360 336 322 344 21 47 17 17 107 220 299 343 30 282 283 277 215 139 63 59 27 341 327 46 30 332 359 83 188 258 291 298 287 89 343 55 80 98 113 76 28 354 354 340 327 341 345 343 338
82 61 11 28 38 52 89 77 39 37 92 69 59 78 68 85 56 39 40 45 60 57 83 112 82 83 150 304 312 249 348 344 359 52 49 5 60 33 335 346 339 315 355 16 324 324 114 101 80 287 301 303 277 297 320 172 112 86 71 46 19 58 86 86 295 309 335 300 248 264 276 230 185 198 116 112 128 126 20 355 352 347 337 330 338 340 339 331
69 55 21 32 40 67 87 74 9 29 69 84 127 75 56 79 58 38 29 27 32 29 36 60 58 47 125 223 338 189 113 10 287 72 28 262 117 329 333 351 356 352 52 27 315 341 44 76 40 304 302 315 310 332 34 125 86 67 42 39 59 29 69 170 190 177 282 296 28 293 278 251 168 172 137 127 105 24 350 344 349 341 334 334 335 335 334 323
70 57 45 40 32 76 90 94 84 73 46 117 89 43 31 62 49 31 15 18 19 38 60 44 17 20 343 153 101 257 254 53 51 52 60 127 120 5 5 19 31 35 40 75 327 344 353 69 50 18 350 346 347 351 345 352 43 56 14 12 36 19 17 133 141 40 185 207 30 312 278 299 164 174 128 101 53 7 351 342 341 335 331 330 329 330 329 313
72 57 50 51 69 92 92 104 126 123 138 88 62 18 20 52 41 35 47 50 37 48 94 29 337 336 344 53 49 338 345 54 24 17 36 14 263 25 27 33 35 18 3 323 297 342 50 131 83 90 75 342 322 312 310 328 2 46 16 356 16 26 25 44 16 30 32 329 353 287 269 315 238 185 137 40 11 354 341 332 329 328 329 326 326 328 324 305
76 64 44 49 66 77 77 81 99 108 127 99 64 14 28 39 22 33 49 69 38 36 87 40 343 347 28 38 35 336 339 14 27 66 51 326 279 347 8 14 18 8 2 353 339 13 101 60 58 127 156 198 222 251 283 347 347 356 349 341 351 340 332 77 91 103 310 305 294 262 290 313 305 269 20 3 356 344 330 328 327 327 328 326 326 328 321 301
72 57 10 42 58 61 60 56 62 80 120 109 91 15 7 340 313 16 35 54 31 30 77 67 34 43 22 28 44 319 317 2 26 68 73 296 272 322 348 14 19 11 18 33 4 36 106 32 19 142 199 223 225 257 300 358 250 174 32 326 332 331 11 83 102 201 282 304 286 300 313 306 302 315 10 352 342 332 323 326 327 325 326 325 325 326 319 300
86 93 76 83 72 43 47 45 54 69 71 74 111 106 6 6 359 15 1 356 26 32 40 38 25 29 330 326 64 1 343 13 19 6 68 335 304 336 355 56 31 19 28 36 22 61 115 52 359 186 272 265 258 277 299 79 153 144 136 257 314 336 88 118 177 219 182 258 283 297 304 298 302 339 23 339 326 320 318 321 323 324 326 326 326 325 319 309
105 107 78 83 95 98 101 74 64 68 55 49 80 63 44 47 28 332 268 340 7 15 31 23 335 344 341 168 109 63 356 23 359 300 211 34 334 358 15 318 356 18 25 33 26 48 99 123 195 169 307 293 293 312 228 187 152 116 310 255 252 294 181 175 216 232 221 253 269 285 296 296 300 7 331 317 311 306 312 320 324 327 328 327 325 323 319 321
111 112 103 101 92 71 71 68 66 72 46 32 59 39 101 88 9 305 257 65 15 340 18 27 312 321 29 101 106 104 267 199 205 251 200 117 349 36 70 263 262 2 15 29 359 12 33 359 188 112 339 302 307 343 314 190 148 146 241 281 323 336 319 228 229 279 296 278 276 289 296 293 270 320 316 313 307 306 314 322 326 328 328 325 322 322 326 327
112 114 114 107 81 24 36 43 49 82 41 12 49 47 330 41 317 281 259 145 125 1 353 316 298 324 74 69 100 145 272 241 228 252 224 168 212 199 155 153 202 341 3 24 345 3 37 15 23 68 10 279 282 346 340 101 112 123 290 335 332 308 289 251 257 326 313 298 303 307 304 303 308 319 317 313 312 315 318 325 328 326 325 323 319 327 334 331
113 114 111 105 83 10 25 34 32 72 70 335 19 220 314 336 300 305 105 224 141 46 354 318 270 89 71 70 104 288 304 288 266 274 264 217 213 193 210 233 166 251 320 92 22 3 81 82 48 49 347 265 282 329 340 83 57 311 271 238 248 258 288 288 291 309 291 270 292 300 299 309 313 317 318 317 322 326 325 327 327 323 321 319 323 333 334 329